Torna al catalogo

FENGYUN 1C DEB

LostSSO
NORAD 46452·DEBRIS·🇨🇳 China

Lanciato May 10, 1999 da Taiyuan Satellite Launch Center

Loading…

Prossimi Passaggi (prossime 24 ore)

TLE

ObsoletoSource: Space-Track

Epoca: Aug 29, 2022, 10:26 UTC

1 46452U 99025EZH 22241.43490561  .00002021  00000-0  79036-3 0  9992
2 46452  98.8458 313.7333 0009493  55.6934 304.5146 14.30668922659863

Traccia FENGYUN 1C DEB in tempo reale con AllMySat

Download on the App Store